Regional Weather Roundup
Issued by NWS Little Rock, AR

Home | Current Version | Previous Version | Text Only | Print | Product List | Glossary On
Versions: 1 2 3 4 5 6 7 8 9 10 11 12 13 14 15 16 17 18 19 20 21 22 23 24 25 26 27
000
ASUS44 KLZK 261405
RWRLZK

WEATHER ROUNDUP FOR ARKANSAS
NATIONAL WEATHER SERVICE LITTLE ROCK AR
900 AM CDT TUE JUL 26 2016

NOTE: "FAIR" INDICATES FEW OR NO CLOUDS BELOW 12,000 FEET WITH NO
SIGNIFICANT WEATHER AND/OR OBSTRUCTIONS TO VISIBILITY.

ARZ001-003-010-029-261500-
NORTHWEST ARKANSAS

CITY           SKY/WX    TMP DP  RH WIND       PRES   REMARKS
FAYETTEVILLE   SUNNY     77  75  93 CALM      30.05R
FORT SMITH     MOSUNNY   80  72  76 E7        30.00R
HARRISON       CLOUDY    76  74  93 SE5       30.06S
BENTONVILLE    MOSUNNY   81  72  74 SE6       30.06R
ROGERS         MOSUNNY   80  74  81 SE7       30.06R HX  85
SILOAM SPGS    CLOUDY    79  66  65 SE5       30.05S
HIGHFILL       PTSUNNY   80  75  84 E5        30.04S HX  85
SPRINGDALE     SUNNY     79  73  83 CALM      30.07R
$$

ARZ004-005-016-261500-
NORTH CENTRAL ARKANSAS

CITY           SKY/WX    TMP DP  RH WIND       PRES   REMARKS
BATESVILLE     CLOUDY    75  73  94 CALM      30.03S VSB 1/4
FLIPPIN        MOSUNNY   79  72  78 CALM      30.01S
MTN HOME       CLOUDY    76  76 100 S5        30.03F
$$

ARZ040-041-261500-
WEST CENTRAL ARKANSAS

CITY           SKY/WX    TMP DP  RH WIND       PRES   REMARKS
MENA           SUNNY     82  79  89 CALM      30.03S HX  93
MOUNT IDA      SUNNY     82  78  88 VRB3      29.99S HX  91
$$

ARZ009-017-025-026-028-261500-
NORTHEAST ARKANSAS

CITY           SKY/WX    TMP DP  RH WIND       PRES   REMARKS
CORNING          N/A     84  75  74 NE7       30.02S HX  92
JONESBORO      SUNNY     82  75  79 CALM      30.01S HX  89
NEWPORT        SUNNY     84  79  85 CALM      30.02S HX  95
WALNUT RIDGE   SUNNY     82  75  78 E6        30.00S HX  89
BLYTHEVILLE    SUNNY     84  75  74 S5        30.02S HX  92
$$

ARZ022-023-033-042-044-261500-
CENTRAL ARKANSAS

CITY           SKY/WX    TMP DP  RH WIND       PRES   REMARKS
LITTLE ROCK    MOSUNNY   87  76  69 CALM      30.00S HX  97
N LITTLE ROCK    N/A     85  78  78 CALM      29.97S HX  97
SEARCY         SUNNY     84  77  79 CALM      30.02S HX  94
HOT SPRINGS    SUNNY     83  76  79 E5        30.01S HX  91
RUSSELLVILLE   MOSUNNY   81  76  84 E5        30.00S HX  87
$$

ARZ036-261500-
EAST ARKANSAS

CITY           SKY/WX    TMP DP  RH WIND       PRES   REMARKS
WEST MEMPHIS   SUNNY     84  76  76 SE6       29.99S HX  93
$$

ARZ050-053-066-070-073-261500-
SOUTHWEST ARKANSAS

CITY           SKY/WX    TMP DP  RH WIND       PRES   REMARKS
CAMDEN         SUNNY     84  73  70 CALM      29.99R HX  91
TEXARKANA      SUNNY     84  74  71 VRB5      29.97S HX  91
EL DORADO      SUNNY     83  74  74 E6        29.98F HX  89
DE QUEEN       SUNNY     83  76  79 E3        29.96S HX  91
$$

ARZ056-057-069-261500-
SOUTHEAST ARKANSAS

CITY           SKY/WX    TMP DP  RH WIND       PRES   REMARKS
PINE BLUFF     SUNNY     84  74  71 CALM      30.00R HX  91
STUTTGART      SUNNY     88  75  66 SW3       30.00S HX  97
MONTICELLO     SUNNY     85  74  69 S3        29.99S HX  92

$$






USA.gov is the U.S. government's official web portal to all federal, state and local government web resources and services.